Total_Precipitation_Accumulation
1.63 1.54 1.44 1.32 1.30 1.32 1.34 1.43 1.59 1.53 1.25 0.96 0.89 0.93 1.00 1.05 1.17 1.12 1.06 1.27 1.30 1.29 1.33 1.37 1.37 1.30 1.29 1.36 1.41 1.48 1.55 1.62 1.69 1.76 1.78 1.74 1.76 1.87
1.53 1.53 1.47 1.35 1.30 1.32 1.37 1.42 1.51 1.59 1.44 1.06 0.92 0.94 1.07 1.16 1.33 1.22 1.13 1.34 1.32 1.29 1.30 1.27 1.22 1.17 1.14 1.16 1.24 1.32 1.33 1.35 1.44 1.57 1.72 1.79 1.85 1.96
1.45 1.47 1.47 1.43 1.42 1.40 1.44 1.49 1.56 1.64 1.62 1.29 1.08 1.04 1.11 1.14 1.17 1.13 1.10 1.12 1.12 1.26 1.19 1.12 1.08 1.04 1.02 0.99 1.02 1.10 1.18 1.22 1.27 1.36 1.50 1.64 1.69 1.72
1.37 1.42 1.45 1.45 1.49 1.50 1.53 1.54 1.55 1.54 1.55 1.44 1.19 1.06 1.03 1.02 1.02 1.02 0.99 0.96 0.93 1.09 1.09 1.03 0.98 0.98 0.98 0.94 0.92 0.93 1.01 1.11 1.16 1.18 1.22 1.29 1.36 1.43
1.20 1.26 1.28 1.34 1.40 1.42 1.47 1.50 1.47 1.44 1.43 1.35 1.15 0.97 0.92 0.92 0.99 0.99 0.95 0.89 0.82 0.90 0.95 0.94 0.90 0.90 0.93 0.90 0.88 0.86 0.83 0.85 0.89 0.94 1.00 1.08 1.16 1.23
1.07 1.13 1.17 1.21 1.25 1.30 1.38 1.41 1.40 1.39 1.39 1.37 1.26 1.07 0.93 0.86 0.90 0.93 0.92 0.86 0.80 0.75 0.87 0.89 0.89 0.87 0.85 0.78 0.72 0.71 0.70 0.72 0.79 0.86 0.94 0.99 1.04 1.11
1.07 1.12 1.19 1.33 1.35 1.29 1.27 1.25 1.25 1.31 1.34 1.33 1.23 1.08 0.94 0.86 0.85 0.79 0.81 0.84 0.85 0.79 0.80 0.81 0.80 0.79 0.80 0.81 0.78 0.72 0.71 0.75 0.79 0.85 0.94 1.01 1.05 1.10
1.10 1.09 1.12 1.25 1.24 1.23 1.20 1.16 1.17 1.24 1.28 1.23 1.10 0.95 0.78 0.68 0.69 0.76 0.82 0.92 0.95 0.77 0.77 0.82 0.78 0.82 0.79 0.77 0.82 0.78 0.75 0.80 0.83 0.85 0.89 0.93 0.96 1.02
1.06 1.05 1.00 0.96 1.01 0.90 0.97 1.05 1.06 1.06 1.03 0.98 0.96 0.82 0.71 0.65 0.74 0.88 0.89 0.88 0.79 0.65 0.74 0.90 0.86 0.83 0.75 0.77 0.85 0.79 0.78 0.81 0.83 0.82 0.83 0.86 0.90 0.94
0.91 0.88 0.84 0.79 0.78 0.80 0.82 0.88 0.80 0.75 0.75 0.71 0.70 0.67 0.67 0.70 0.80 0.92 0.97 1.02 0.91 0.82 0.82 0.93 0.83 0.78 0.71 0.71 0.80 0.76 0.76 0.80 0.83 0.85 0.85 0.85 0.87 0.92
0.75 0.72 0.72 0.68 0.78 0.87 0.81 0.76 0.70 0.67 0.71 0.74 0.77 0.78 0.85 0.91 0.94 1.02 1.11 1.22 1.12 0.86 0.74 0.75 0.70 0.67 0.66 0.68 0.72 0.78 0.76 0.76 0.79 0.84 0.88 0.91 0.89 0.90
0.59 0.57 0.64 0.65 0.77 0.85 0.77 0.74 0.70 0.59 0.58 0.63 0.66 0.67 0.67 0.73 0.87 0.86 0.94 1.21 1.12 0.87 0.57 0.61 0.66 0.74 0.93 0.70 0.62 0.66 0.72 0.77 0.75 0.75 0.78 0.85 0.94 0.97
0.56 0.55 0.56 0.67 0.73 0.77 0.78 0.70 0.69 0.69 0.64 0.63 0.64 0.64 0.63 0.65 0.69 0.69 0.75 1.03 1.24 0.97 0.52 0.75 0.97 0.85 1.03 0.80 0.58 0.57 0.60 0.68 0.73 0.75 0.75 0.78 0.86 1.02
0.54 0.53 0.58 0.72 0.77 0.77 0.73 0.72 0.79 0.82 0.72 0.72 0.71 0.68 0.63 0.59 0.57 0.59 0.65 0.71 0.81 0.83 0.63 0.91 1.34 1.11 1.23 1.03 0.65 0.54 0.58 0.61 0.67 0.72 0.74 0.86 0.93 0.99
0.54 0.58 0.64 0.70 0.72 0.70 0.71 0.74 0.74 0.69 0.69 0.71 0.68 0.60 0.56 0.56 0.62 0.68 0.72 0.73 0.73 0.70 0.69 0.73 0.99 1.09 1.36 1.34 0.89 0.59 0.60 0.64 0.64 0.72 0.79 0.85 0.91 1.00
0.61 0.63 0.65 0.66 0.64 0.63 0.64 0.65 0.63 0.62 0.67 0.68 0.64 0.62 0.66 0.72 0.74 0.76 0.83 0.83 0.88 0.78 0.68 0.65 0.73 1.05 1.32 1.08 1.04 0.86 0.68 0.74 0.69 0.76 0.84 0.83 0.80 0.88
0.72 0.70 0.65 0.60 0.59 0.58 0.56 0.56 0.58 0.61 0.66 0.65 0.70 0.74 0.75 0.75 0.74 0.73 0.82 0.89 0.92 0.75 0.66 0.65 0.69 0.80 0.96 1.03 1.06 0.81 0.70 0.74 0.78 0.89 1.01 0.99 0.83 0.82
0.84 0.74 0.61 0.55 0.53 0.53 0.54 0.56 0.57 0.60 0.62 0.67 0.74 0.77 0.81 0.81 0.79 0.75 0.80 0.89 0.88 0.72 0.66 0.65 0.77 0.97 0.97 0.85 0.76 0.76 0.78 0.81 0.81 0.86 1.00 1.20 0.99 0.81
0.75 0.62 0.53 0.51 0.51 0.52 0.55 0.59 0.58 0.57 0.63 0.72 0.78 0.81 0.86 0.88 0.88 0.86 0.85 0.89 0.85 0.74 0.68 0.69 0.88 1.31 1.41 0.91 0.56 0.58 0.82 0.92 0.91 0.97 1.03 1.20 1.23 0.95
0.55 0.50 0.50 0.51 0.54 0.58 0.61 0.64 0.64 0.65 0.69 0.72 0.76 0.82 0.91 0.98 0.96 0.88 0.85 0.89 0.91 0.84 0.77 0.70 0.77 1.15 1.61 1.33 0.96 0.58 0.59 0.88 1.20 1.31 1.10 0.99 0.98 0.91
0.48 0.46 0.50 0.56 0.61 0.65 0.67 0.71 0.75 0.77 0.75 0.80 0.82 0.83 0.91 1.05 1.01 0.87 0.87 0.87 0.95 0.95 0.87 0.68 0.59 0.76 1.19 1.60 1.35 0.73 0.60 0.68 0.99 1.44 1.50 1.44 1.17 0.92
0.56 0.56 0.56 0.60 0.66 0.71 0.74 0.78 0.81 0.80 0.82 0.87 0.88 0.88 0.92 1.04 1.06 0.96 0.96 1.00 0.94 0.87 0.83 0.73 0.72 0.88 1.20 1.54 1.20 0.72 0.62 0.65 0.72 0.81 1.12 1.68 2.20 1.99
0.66 0.67 0.66 0.68 0.73 0.78 0.82 0.83 0.82 0.79 0.80 0.88 0.89 0.90 0.94 1.00 0.95 0.98 0.99 1.02 1.07 1.01 0.98 0.94 0.88 0.91 0.97 1.04 1.06 0.85 0.68 0.64 0.67 0.72 0.79 0.86 1.08 1.32